• en France
  • Liste des pays
  • À 7 jours
  • Température de l'eau
  • Carte satellitaire
  • Carte météo
  • Widgets météo
  • user-avatar
    Se connecter

    Météo par heure à Ogorzelczyn

    Ce jour, 19 Août, Dimanche

    Heure Température Précipitation Vent Pression Humidité
    00:00 +22°C° 0 mm 1 m/s 754 mmHg 71%
    01:00 +22°C° 0 mm 1 m/s 754 mmHg 72%
    02:00 +22°C° 0 mm 1 m/s 754 mmHg 73%
    03:00 +21°C° 0 mm 1 m/s 754 mmHg 73%
    04:00 +19°C° 0 mm 0 m/s 754 mmHg 73%
    05:00 +22°C° 0 mm 1 m/s 754 mmHg 71%
    06:00 +23°C° 0 mm 1 m/s 754 mmHg 68%
    07:00 +24°C° 0 mm 1 m/s 755 mmHg 66%
    08:00 +25°C° 0,1 mm 1 m/s 755 mmHg 61%
    09:00 +27°C° 0,1 mm 2 m/s 755 mmHg 57%
    10:00 +28°C° 0,1 mm 2 m/s 755 mmHg 52%
    11:00 +29°C° 0 mm 2 m/s 754 mmHg 48%
    12:00 +29°C° 0 mm 2 m/s 754 mmHg 43%
    13:00 +30°C° 0 mm 3 m/s 754 mmHg 38%
    14:00 +30°C° 0 mm 3 m/s 754 mmHg 37%
    15:00 +30°C° 0 mm 3 m/s 753 mmHg 36%
    16:00 +30°C° 0 mm 3 m/s 753 mmHg 34%
    17:00 +29°C° 0 mm 2 m/s 753 mmHg 38%
    18:00 +27°C° 0 mm 2 m/s 753 mmHg 42%
    19:00 +25°C° 0 mm 1 m/s 753 mmHg 46%
    20:00 +25°C° 0 mm 1 m/s 752 mmHg 46%
    21:00 +24°C° 0 mm 1 m/s 752 mmHg 46%
    22:00 +23°C° 0 mm 1 m/s 752 mmHg 47%
    23:00 +23°C° 0 mm 1 m/s 752 mmHg 48%

    Demain, 20 Août, Lundi

    Heure Température Précipitation Vent Pression Humidité
    00:00 +23°C° 0 mm 2 m/s 752 mmHg 48%
    01:00 +21°C° 0 mm 2 m/s 752 mmHg 49%
    02:00 +21°C° 0 mm 2 m/s 751 mmHg 51%
    03:00 +21°C° 0 mm 2 m/s 751 mmHg 53%
    04:00 +21°C° 0 mm 3 m/s 751 mmHg 55%
    05:00 +22°C° 0 mm 3 m/s 751 mmHg 57%
    06:00 +24°C° 0 mm 3 m/s 751 mmHg 59%
    07:00 +25°C° 0 mm 3 m/s 751 mmHg 61%
    08:00 +26°C° 0 mm 4 m/s 751 mmHg 56%
    09:00 +28°C° 0 mm 4 m/s 751 mmHg 51%
    10:00 +30°C° 0 mm 4 m/s 751 mmHg 46%
    11:00 +30°C° 0 mm 4 m/s 751 mmHg 45%
    12:00 +30°C° 0 mm 5 m/s 750 mmHg 44%
    13:00 +30°C° 0 mm 5 m/s 750 mmHg 42%
    14:00 +30°C° 0 mm 5 m/s 750 mmHg 43%
    15:00 +30°C° 0 mm 6 m/s 750 mmHg 44%
    16:00 +29°C° 0 mm 6 m/s 750 mmHg 45%
    17:00 +28°C° 0 mm 5 m/s 750 mmHg 51%
    18:00 +26°C° 0 mm 4 m/s 750 mmHg 56%
    19:00 +25°C° 0 mm 3 m/s 750 mmHg 61%
    20:00 +23°C° 0 mm 4 m/s 751 mmHg 66%
    21:00 +22°C° 0 mm 4 m/s 751 mmHg 70%
    22:00 +21°C° 0 mm 4 m/s 751 mmHg 75%
    23:00 +20°C° 0 mm 4 m/s 752 mmHg 74%

    Après-demain, 21 Août, Mardi

    Heure Température Précipitation Vent Pression Humidité
    00:00 +19°C° 0 mm 3 m/s 752 mmHg 74%
    01:00 +18°C° 0 mm 3 m/s 752 mmHg 74%
    02:00 +17°C° 0 mm 3 m/s 753 mmHg 74%
    03:00 +16°C° 0 mm 3 m/s 753 mmHg 74%
    04:00 +14°C° 0 mm 3 m/s 753 mmHg 73%
    05:00 +16°C° 0 mm 3 m/s 754 mmHg 71%
    06:00 +17°C° 0 mm 4 m/s 754 mmHg 69%
    07:00 +18°C° 0 mm 4 m/s 755 mmHg 67%
    08:00 +19°C° 0 mm 4 m/s 755 mmHg 61%
    09:00 +20°C° 0 mm 4 m/s 755 mmHg 55%
    10:00 +22°C° 0 mm 4 m/s 755 mmHg 49%
    11:00 +23°C° 0 mm 4 m/s 755 mmHg 45%
    12:00 +25°C° 0 mm 4 m/s 755 mmHg 41%
    13:00 +26°C° 0 mm 4 m/s 755 mmHg 37%
    14:00 +26°C° 0 mm 4 m/s 755 mmHg 37%
    15:00 +26°C° 0 mm 3 m/s 755 mmHg 37%
    16:00 +26°C° 0 mm 3 m/s 755 mmHg 37%
    17:00 +25°C° 0 mm 2 m/s 755 mmHg 41%
    18:00 +23°C° 0 mm 2 m/s 755 mmHg 45%
    19:00 +22°C° 0 mm 1 m/s 755 mmHg 49%
    20:00 +21°C° 0 mm 1 m/s 755 mmHg 52%
    21:00 +20°C° 0 mm 1 m/s 755 mmHg 55%
    22:00 +19°C° 0 mm 1 m/s 756 mmHg 57%
    23:00 +19°C° 0 mm 1 m/s 756 mmHg 60%

    22 Août, Mercredi

    Heure Température Précipitation Vent Pression Humidité
    00:00 +17°C° 0 mm 2 m/s 756 mmHg 63%
    01:00 +17°C° 0 mm 2 m/s 756 mmHg 66%
    02:00 +16°C° 0 mm 2 m/s 756 mmHg 67%
    03:00 +16°C° 0 mm 2 m/s 756 mmHg 69%
    04:00 +16°C° 0 mm 2 m/s 756 mmHg 71%
    05:00 +17°C° 0 mm 2 m/s 756 mmHg 68%
    06:00 +18°C° 0 mm 2 m/s 756 mmHg 65%
    07:00 +19°C° 0 mm 3 m/s 756 mmHg 63%
    08:00 +21°C° 0 mm 3 m/s 756 mmHg 57%
    09:00 +24°C° 0 mm 3 m/s 756 mmHg 50%
    10:00 +25°C° 0 mm 3 m/s 756 mmHg 44%
    11:00 +26°C° 0 mm 3 m/s 755 mmHg 42%
    12:00 +27°C° 0 mm 3 m/s 755 mmHg 40%
    13:00 +28°C° 0 mm 3 m/s 754 mmHg 38%
    14:00 +28°C° 0 mm 3 m/s 754 mmHg 37%
    15:00 +28°C° 0 mm 3 m/s 754 mmHg 37%
    16:00 +28°C° 0 mm 3 m/s 753 mmHg 37%
    17:00 +27°C° 0 mm 3 m/s 753 mmHg 42%
    18:00 +25°C° 0 mm 3 m/s 753 mmHg 47%
    19:00 +24°C° 0 mm 3 m/s 753 mmHg 51%
    20:00 +22°C° 0 mm 3 m/s 753 mmHg 53%
    21:00 +21°C° 0 mm 3 m/s 753 mmHg 54%
    22:00 +20°C° 0 mm 3 m/s 753 mmHg 56%
    23:00 +20°C° 0 mm 3 m/s 753 mmHg 58%

    23 Août, Jeudi

    Heure Température Précipitation Vent Pression Humidité
    00:00 +19°C° 0 mm 3 m/s 753 mmHg 61%
    01:00 +19°C° 0 mm 3 m/s 753 mmHg 64%
    02:00 +18°C° 0 mm 3 m/s 752 mmHg 67%
    03:00 +18°C° 0 mm 3 m/s 752 mmHg 71%
    04:00 +18°C° 0 mm 3 m/s 752 mmHg 74%
    05:00 +19°C° 0 mm 3 m/s 752 mmHg 72%
    06:00 +20°C° 0 mm 3 m/s 752 mmHg 70%
    07:00 +21°C° 0 mm 4 m/s 752 mmHg 67%
    08:00 +23°C° 0 mm 4 m/s 752 mmHg 60%
    09:00 +26°C° 0 mm 4 m/s 751 mmHg 53%
    10:00 +28°C° 0 mm 4 m/s 751 mmHg 47%
    11:00 +29°C° 0 mm 3 m/s 751 mmHg 43%
    12:00 +30°C° 0 mm 3 m/s 750 mmHg 40%
    13:00 +31°C° 0 mm 3 m/s 750 mmHg 36%
    14:00 +31°C° 0 mm 2 m/s 750 mmHg 37%
    15:00 +30°C° 0 mm 2 m/s 749 mmHg 38%
    16:00 +30°C° 0 mm 1 m/s 749 mmHg 39%
    17:00 +29°C° 0 mm 1 m/s 749 mmHg 41%
    18:00 +28°C° 0 mm 2 m/s 748 mmHg 43%
    19:00 +27°C° 0 mm 2 m/s 748 mmHg 45%
    20:00 +26°C° 0 mm 2 m/s 748 mmHg 46%
    21:00 +25°C° 0 mm 3 m/s 748 mmHg 48%
    22:00 +25°C° 0 mm 3 m/s 748 mmHg 49%
    23:00 +24°C° 0 mm 3 m/s 748 mmHg 50%

    24 Août, Vendredi

    Heure Température Précipitation Vent Pression Humidité
    00:00 +22°C° 0 mm 3 m/s 747 mmHg 51%
    01:00 +22°C° 0 mm 3 m/s 747 mmHg 53%
    02:00 +21°C° 0 mm 3 m/s 746 mmHg 55%
    03:00 +21°C° 0 mm 3 m/s 746 mmHg 58%
    04:00 +21°C° 0 mm 3 m/s 746 mmHg 61%
    05:00 +22°C° 0 mm 3 m/s 745 mmHg 61%
    06:00 +23°C° 0 mm 4 m/s 745 mmHg 61%
    07:00 +25°C° 0 mm 4 m/s 745 mmHg 61%
    08:00 +26°C° 0 mm 4 m/s 744 mmHg 57%
    09:00 +28°C° 0 mm 4 m/s 744 mmHg 53%
    10:00 +30°C° 0 mm 4 m/s 744 mmHg 48%
    11:00 +32°C° 0 mm 4 m/s 744 mmHg 45%
    12:00 +33°C° 0 mm 5 m/s 743 mmHg 43%
    13:00 +33°C° 0 mm 5 m/s 743 mmHg 40%
    14:00 +33°C° 0 mm 5 m/s 743 mmHg 43%
    15:00 +32°C° 0 mm 5 m/s 743 mmHg 45%
    16:00 +30°C° 0 mm 5 m/s 743 mmHg 48%
    17:00 +28°C° 0,3 mm 5 m/s 743 mmHg 55%
    18:00 +26°C° 0,3 mm 5 m/s 743 mmHg 62%
    19:00 +23°C° 0,3 mm 5 m/s 744 mmHg 69%
    20:00 +22°C° 0,1 mm 5 m/s 744 mmHg 73%
    21:00 +20°C° 0,1 mm 5 m/s 745 mmHg 78%
    22:00 +19°C° 0,1 mm 5 m/s 745 mmHg 83%
    23:00 +17°C° 0 mm 5 m/s 746 mmHg 83%
    Voir plus